[[{"header":{"parameterUnit":"m.s-1","parameterCategory":1,"la1":30.2991,"la2":30.254,"lo1":-89.0895,"lo2":-89.0444,"dy":0.0017,"dx":0.0017,"nx":28,"ny":28,"refTime":"2025-04-04T09:00:00:Z","depth":0,"parameterNumber":2,"parameterNumberName":"U-component_of_WINDS"},"data":[0,0,0,0,0,0,0,0,0,0,0,0,0,0,0,0,0,0,0,0,0,0,0,0,0,0,0,0,0,0,0,0,0,0,0,0,0,0,0,0,0,0,0,0,0,0,0,0,0,0,0,0,0,0,0,0,0,0,-4.7125,-4.7127,0,-4.7288,-4.729,-4.7292,-4.7302,-4.73,-4.7298,-4.7296,-4.7464,-4.747,-4.7476,0,0,0,0,0,0,0,0,0,0,0,0,0,-4.6824,-4.683,-4.7125,-4.7127,-4.7129,-4.7288,-4.729,-4.7292,-4.7302,-4.73,-4.7298,-4.7295,-4.7462,-4.7469,-4.7477,0,0,0,0,0,0,0,0,0,0,0,0,0,-4.6968,-4.6832,-4.7125,-4.7153,-4.7157,-4.7287,-4.729,-4.7293,-4.7303,-4.73,-4.7297,-4.7294,-4.746,-4.7469,-4.7478,-4.7591,0,0,-4.7506,-4.751,0,0,0,0,0,0,0,0,-4.696,-4.6979,-4.7147,-4.7151,-4.7156,-4.7272,-4.7246,-4.7393,-4.7303,-4.7247,-4.7296,-4.7293,-4.7403,-4.7416,-4.7453,-4.7599,-4.7606,-4.7507,-4.7513,-4.7517,-4.7519,0,0,0,0,0,0,0,-4.695,-4.6972,-4.719,-4.7149,-4.7155,-4.7159,-4.7176,-4.7274,-4.7339,-4.7252,-4.7253,-4.7272,-4.7405,-4.7444,-4.7457,-4.7609,-4.7507,-4.7515,-4.7521,-4.7525,-4.7857,-4.786,0,0,0,0,0,0,-4.6934,-4.6964,-4.7184,-4.7194,-4.7049,-4.7166,-4.7186,-4.7238,-4.7338,-4.735,-4.7275,-4.7272,-4.743,-4.7446,-4.7463,-4.7602,-4.7517,-4.7525,-4.7531,-4.7854,-4.7858,-4.7861,0,0,0,0,0,0,-4.6928,-4.6954,-4.7178,-4.708,-4.7108,-4.7174,-4.7233,-4.7242,-4.7282,-4.7355,-4.7366,-4.7303,-4.7428,-4.745,-4.7559,-4.7608,-4.753,-4.7538,-4.785,-4.7855,-4.786,-4.7881,0,0,0,0,0,0,-4.6919,-4.6951,-4.6994,-4.708,-4.7113,-4.7271,-4.7236,-4.7247,-4.7298,-4.7296,-4.7384,-4.7396,-4.7428,-4.7545,-4.7569,-4.7619,-4.7545,-4.7846,-4.7852,-4.7858,-4.7876,-4.7886,-4.7894,0,0,0,0,0,-4.6908,-4.6994,-4.6996,-4.7023,-4.7168,-4.7273,-4.7292,-4.7326,-4.7301,-4.7345,-4.7393,-4.7393,-4.76,-4.7557,-4.7583,-4.7637,-4.7843,-4.7851,-4.7858,-4.7872,-4.7884,-4.7894,0,0,0,0,0,0,-4.6911,-4.7005,-4.7009,-4.7125,-4.7191,-4.7275,-4.7331,-4.7338,-4.7413,-4.7408,-4.7448,-4.7468,-4.7576,-4.7618,-4.7568,-4.7753,-4.7719,-4.7732,-4.772,-4.7732,-4.7741,-4.7728,-4.7553,0,0,0,0,0,-4.6925,-4.7002,-4.7081,-4.7175,-4.7208,-4.7264,-4.7311,-4.7332,-4.7402,-4.743,-4.7485,-4.7554,-4.7634,-4.7686,-4.7764,-4.7883,-4.7903,-4.7934,-4.7943,-4.795,-4.796,-4.8026,-4.8041,-4.7885,-4.7885,-4.7885,0,0,-4.6954,-4.7016,-4.7062,-4.7177,-4.7231,-4.731,-4.7287,-4.7372,-4.7431,-4.7443,-4.7549,-4.7593,-4.7672,-4.7787,-4.784,-4.7825,-4.8008,-4.7959,-4.7964,-4.797,-4.8035,-4.805,-4.8063,-4.789,-4.7889,-4.7889,0,0,-4.7048,-4.7103,-4.7187,-4.7242,-4.7324,-4.7361,-4.7382,-4.7466,-4.7495,-4.7602,-4.7613,-4.7685,-4.7823,-4.7879,-4.7925,-4.8044,-4.8048,-4.8069,-4.8115,-4.818,-4.8192,-4.8203,-4.8244,-4.8259,-4.8079,-4.8079,-4.8079,0,-4.7074,-4.7194,-4.723,-4.7315,-4.7366,-4.7381,-4.7468,-4.752,-4.7623,-4.7658,-4.764,-4.7814,-4.7868,-4.7996,-4.8026,-4.8063,-4.8088,-4.8057,-4.8187,-4.8199,-4.8209,-4.8249,-4.8265,-4.8081,-4.8081,-4.8081,-4.8081,0,-4.7222,-4.7305,-4.7363,-4.7463,-4.7521,-4.7606,-4.7656,-4.7711,-4.7728,-4.7767,-4.7877,-4.7944,-4.8036,-4.8069,-4.8086,-4.82,-4.8188,-4.8179,-4.8145,-4.8225,-4.8264,-4.8279,-4.8084,-4.8083,-4.8083,-4.8082,0,0,-4.7318,-4.7439,-4.7459,-4.7505,-4.7598,-4.7663,-4.775,-4.784,-4.7886,-4.7958,-4.8032,-4.815,-4.8142,-4.8195,-4.8219,-4.8276,-4.8365,-4.826,-4.8262,-4.8275,-4.8495,-4.85,-4.8517,-4.837,-4.8373,-4.8375,-4.8488,0,-4.7421,-4.7574,-4.7611,-4.7743,-4.782,-4.7838,-4.7914,-4.798,-4.802,-4.8093,-4.8138,-4.822,-4.8204,-4.8236,-4.8293,-4.8342,-4.841,-4.8335,-4.8438,-4.8441,-4.8415,-4.8537,-4.8542,-4.8645,-4.8503,-4.8506,-4.8508,0,-4.756,-4.7635,-4.7775,-4.7859,-4.7893,-4.796,-4.8046,-4.8115,-4.8191,-4.8217,-4.8277,-4.8297,-4.8389,-4.8353,-4.8481,-4.843,-4.8475,-4.8506,-4.8511,-4.852,-4.8477,-4.8547,-4.8679,-4.8693,-4.8532,-4.853,-4.8528,0,-4.7614,-4.7751,-4.7852,-4.7891,-4.7992,-4.8039,-4.8084,-4.8157,-4.8209,-4.8286,-4.832,-4.8407,-4.8453,-4.852,-4.8563,-4.8533,-4.8688,-4.8655,-4.8711,-4.871,-4.874,-4.8737,-4.8878,-4.8773,-4.8773,-4.8773,-4.8772,0,-4.7724,-4.7808,-4.7878,-4.794,-4.8035,-4.8079,-4.8172,-4.8217,-4.8283,-4.8355,-4.8377,-4.8444,-4.8497,-4.8572,-4.8607,-4.8707,-4.8729,-4.8752,-4.876,-4.8749,-4.8745,-4.8777,-4.877,-4.8777,-4.8776,-4.8775,-4.8774,0,-4.7799,-4.7849,-4.796,-4.8048,-4.8072,-4.8139,-4.8214,-4.8276,-4.8318,-4.8408,-4.8432,-4.8499,-4.8588,-4.8638,-4.8751,-4.8774,-4.8886,-4.8891,-4.8859,-4.8862,-4.8915,-4.8908,-4.9079,-4.9103,-4.8984,-4.8985,-4.8986,0,-4.7864,-4.7929,-4.8024,-4.8074,-4.8119,-4.8199,-4.8252,-4.8299,-4.8354,-4.8447,-4.8498,-4.8589,-4.8663,-4.8806,-4.8864,-4.8951,-4.8957,-4.9011,-4.897,-4.8957,-4.8956,-4.895,-4.8957,-4.9017,-4.9018,-4.9019,-4.902,0,-4.7973,-4.7996,-4.8072,-4.8158,-4.8222,-4.8292,-4.8361,-4.8401,-4.8459,-4.8521,-4.8612,-4.867,-4.8786,-4.8876,-4.8968,-4.9015,-4.9027,-4.9033,-4.905,-4.9038,-4.9016,-4.9027,-4.8876,-4.9028,-4.9027,-4.9026,-4.9026,-4.9026,-4.8044,-4.8103,-4.818,-4.8265,-4.8322,-4.8387,-4.8449,-4.85,-4.8577,-4.8674,-4.8698,-4.8794,-4.8871,-4.8996,-4.9046,-4.9123,-4.9113,-4.9138,-4.9144,-4.9149,-4.9149,-4.9006,-4.914,-4.914,-4.914,-4.9139,-4.9139,0,-4.8153,-4.8204,-4.8282,-4.8379,-4.8446,-4.8453,-4.8531,-4.8587,-4.8671,-4.8742,-4.8816,-4.8922,-4.901,-4.9077,-4.9167,-4.9216,-4.9224,-4.9238,-4.9234,-4.9244,-4.9154,-4.9129,-4.923,-4.923,-4.923,-4.923,-4.923,-4.923,-4.8218,-4.8318,-4.835,-4.848,-4.853,-4.8624,-4.8668,-4.8729,-4.8786,-4.8903,-4.8976,-4.9019,-4.9089,-4.9185,-4.9267,-4.9284,-4.9316,-4.9329,-4.9347,-4.926,-4.9251,-4.9241,-4.9218,-4.9336,-4.9336,-4.9431,-4.9431,-4.9432]},{"header":{"parameterUnit":"m.s-1","parameterCategory":1,"la1":30.2991,"la2":30.254,"lo1":-89.0895,"lo2":-89.0444,"dy":0.0017,"dx":0.0017,"nx":28,"ny":28,"refTime":"2025-04-04T09:00:00:Z","depth":0,"parameterNumber":3,"parameterNumberName":"V-component_of_WINDS"},"data":[0,0,0,0,0,0,0,0,0,0,0,0,0,0,0,0,0,0,0,0,0,0,0,0,0,0,0,0,0,0,0,0,0,0,0,0,0,0,0,0,0,0,0,0,0,0,0,0,0,0,0,0,0,0,0,0,0,0,3.0724,3.0724,0,3.0733,3.0733,3.0733,3.0743,3.0744,3.0744,3.0744,3.0751,3.0751,3.0751,0,0,0,0,0,0,0,0,0,0,0,0,0,3.0717,3.0717,3.0724,3.0724,3.0724,3.0733,3.0733,3.0733,3.0743,3.0744,3.0744,3.0744,3.0751,3.0751,3.0751,0,0,0,0,0,0,0,0,0,0,0,0,0,3.0722,3.0717,3.0724,3.0731,3.0731,3.0733,3.0733,3.0733,3.0743,3.0744,3.0744,3.0744,3.0751,3.0751,3.0751,3.0747,0,0,3.0751,3.0751,0,0,0,0,0,0,0,0,3.0722,3.0723,3.0729,3.073,3.0731,3.0737,3.0733,3.0738,3.0743,3.0739,3.0744,3.0744,3.0746,3.0747,3.0748,3.0747,3.0747,3.0751,3.0751,3.0751,3.0751,0,0,0,0,0,0,0,3.0722,3.0722,3.0728,3.073,3.073,3.0733,3.0734,3.0734,3.0741,3.0739,3.074,3.0741,3.0747,3.0748,3.0748,3.0748,3.0751,3.0751,3.0752,3.0752,3.0747,3.0747,0,0,0,0,0,0,3.072,3.0722,3.0727,3.0728,3.0727,3.0733,3.0734,3.0735,3.0741,3.0742,3.0741,3.0741,3.0747,3.0748,3.0748,3.0745,3.0751,3.0752,3.0752,3.0747,3.0747,3.0747,0,0,0,0,0,0,3.072,3.0721,3.0727,3.0725,3.0726,3.0733,3.0734,3.0735,3.0736,3.0742,3.0743,3.074,3.0748,3.0748,3.0748,3.0746,3.0752,3.0752,3.0747,3.0747,3.0747,3.0739,0,0,0,0,0,0,3.072,3.0721,3.0719,3.0725,3.0726,3.0726,3.0734,3.0735,3.0736,3.0737,3.0742,3.0743,3.0748,3.0748,3.0748,3.0746,3.0752,3.0748,3.0747,3.0747,3.0739,3.0738,3.0737,0,0,0,0,0,3.072,3.0715,3.0718,3.0719,3.0724,3.0726,3.0727,3.0732,3.0736,3.0735,3.0739,3.0743,3.0746,3.0748,3.0748,3.0746,3.0748,3.0747,3.0747,3.0739,3.0738,3.0737,0,0,0,0,0,0,3.0707,3.0716,3.072,3.0717,3.0721,3.0728,3.0726,3.0731,3.0733,3.0734,3.074,3.0741,3.0741,3.0743,3.0745,3.0744,3.0748,3.0747,3.0742,3.0741,3.074,3.0739,3.0752,0,0,0,0,0,3.0704,3.0705,3.0712,3.0709,3.0711,3.0718,3.0719,3.0724,3.0728,3.0729,3.0733,3.0737,3.0739,3.074,3.0742,3.074,3.0742,3.0739,3.0738,3.0737,3.0737,3.0738,3.0737,3.0746,3.0746,3.0746,0,0,3.0697,3.0702,3.0702,3.0707,3.071,3.0712,3.0719,3.072,3.0721,3.0729,3.073,3.0733,3.0738,3.0737,3.0737,3.0739,3.0735,3.0737,3.0736,3.0736,3.0738,3.0737,3.0736,3.0745,3.0745,3.0745,0,0,3.0686,3.0689,3.0688,3.0692,3.0698,3.0703,3.0703,3.071,3.0713,3.0714,3.0721,3.0723,3.0726,3.073,3.0732,3.0726,3.073,3.0726,3.0721,3.0723,3.0722,3.0721,3.0721,3.072,3.0726,3.0726,3.0726,0,3.0676,3.0679,3.0686,3.0688,3.069,3.0699,3.0699,3.0702,3.0708,3.071,3.0713,3.0719,3.0722,3.0724,3.0723,3.0724,3.0725,3.0725,3.0721,3.0721,3.0721,3.072,3.072,3.0725,3.0725,3.0726,3.0726,0,3.0668,3.067,3.0668,3.0676,3.0678,3.0678,3.0687,3.0689,3.0694,3.07,3.0702,3.0707,3.0711,3.0712,3.0716,3.0715,3.0717,3.072,3.0724,3.0719,3.0719,3.0719,3.0725,3.0725,3.0725,3.0725,0,0,3.0647,3.0661,3.066,3.0665,3.0673,3.0675,3.0677,3.0682,3.0685,3.0689,3.0692,3.0695,3.07,3.0703,3.0708,3.0709,3.0706,3.0713,3.0713,3.0712,3.0707,3.0705,3.0704,3.0709,3.0709,3.0709,3.0707,0,3.0638,3.0641,3.065,3.0651,3.0654,3.0664,3.0666,3.0672,3.0678,3.0682,3.0688,3.0691,3.0696,3.0698,3.07,3.0706,3.0705,3.0706,3.0712,3.0712,3.0711,3.0704,3.0701,3.0698,3.0707,3.0707,3.0707,0,3.0627,3.0633,3.0635,3.0646,3.0648,3.0649,3.0657,3.066,3.0667,3.0672,3.0677,3.0683,3.0686,3.0691,3.0696,3.0697,3.07,3.0704,3.0704,3.0705,3.0709,3.0705,3.0698,3.0698,3.0707,3.0707,3.0707,0,3.0613,3.0621,3.0624,3.0628,3.064,3.0642,3.0647,3.0655,3.0659,3.0666,3.0668,3.0675,3.0678,3.0683,3.0692,3.0694,3.0697,3.0702,3.0702,3.0701,3.0701,3.0701,3.0695,3.0703,3.0703,3.0703,3.0703,0,3.0602,3.0603,3.0619,3.062,3.0623,3.0633,3.0635,3.0642,3.065,3.0653,3.0662,3.0666,3.0677,3.0682,3.0688,3.0693,3.0694,3.0698,3.07,3.0698,3.0697,3.07,3.0701,3.0702,3.0702,3.0702,3.0702,0,3.0586,3.0596,3.0601,3.0614,3.0617,3.0618,3.063,3.0632,3.064,3.0645,3.0647,3.0658,3.0665,3.0674,3.0683,3.0688,3.0692,3.0694,3.069,3.0691,3.0691,3.0691,3.0686,3.0686,3.0693,3.0693,3.0693,0,3.0579,3.058,3.0594,3.0598,3.0604,3.0609,3.0614,3.0625,3.063,3.0641,3.0643,3.065,3.0657,3.0668,3.0677,3.0685,3.0688,3.0686,3.0689,3.0687,3.0689,3.0689,3.069,3.0684,3.0684,3.0684,3.0684,0,3.0565,3.0571,3.0577,3.0586,3.0592,3.06,3.0607,3.061,3.0623,3.0628,3.0636,3.0642,3.0653,3.0661,3.067,3.0676,3.0683,3.0683,3.0684,3.0682,3.0679,3.0682,3.0688,3.0683,3.0683,3.0683,3.0683,3.0683,3.0554,3.0557,3.0568,3.0575,3.0583,3.0591,3.0595,3.0604,3.0611,3.0622,3.0628,3.0636,3.0647,3.066,3.0666,3.0673,3.0676,3.0676,3.0676,3.0676,3.0676,3.0678,3.0675,3.0675,3.0675,3.0675,3.0675,0,3.0541,3.055,3.0557,3.0569,3.0576,3.0583,3.0593,3.0598,3.0605,3.0615,3.0622,3.0633,3.0641,3.0652,3.0662,3.0666,3.0669,3.0668,3.0668,3.0669,3.0673,3.0672,3.0665,3.0665,3.0665,3.0665,3.0665,3.0665,3.0536,3.0542,3.0549,3.056,3.0568,3.0577,3.0583,3.0591,3.0599,3.061,3.0618,3.0626,3.0636,3.0648,3.0656,3.066,3.0663,3.0661,3.0665,3.0668,3.0669,3.067,3.0669,3.0661,3.0661,3.0661,3.0661,3.0661]}]]